Home > Time Zones > World Clock > Weather > Norway > Ski > Past weeks

Flag for Norway Weather past 2 weeks in Ski, Norway

Now
46 °F

Partly sunny.


Feels Like: 36 °F
Forecast: 41 / 47 °F
Wind: 38 mph from Southwest

Location: Oslo / Fornebu


UV Index: 0 (Low)

Visibility: 6 mi


Pressure: 29.98 "Hg

Humidity: 93%

Dew point: 45 °F

Location of SkiLocation

Historic Weather in Ski

°F

Ski temperature yesterday

Maximum temperature yesterday: 45 °F (at 9:50 AM)
Minimum temperature yesterday: 39 °F (at 12:50 AM)
Average temperature yesterday: 44 °F

Past Weeks' High & Low Weather Summary

 TemperatureHumidityPressure
High50 °F (Apr 7, 2:50 PM)100% (Apr 5, 4:20 PM)30.33 "Hg (Apr 5, 4:20 PM)
Low37 °F (Apr 14, 1:20 PM)56% (Apr 14, 8:20 PM)29.12 "Hg (Apr 12, 7:20 PM)
Average45 °F80%29.75 "Hg
* Reported Apr 1 9:20 AM — Apr 16 9:50 AM, Ski, Weather by CustomWeather, © 2014

Note: Actual official high and low records may vary slightly from our data, if they occured in-between our weather recording intervals... More about our weather records

Advertising

Historic Weather Conditions — Data for Previous 24 hours

 ConditionsComfort  
Time TempWeatherWind HumidityBarometerVisibility
9:50 AM
Apr 16
46 °FPartly sunny.39 mph93%29.98 "HgN/A
9:20 AM46 °FOvercast.40 mph93%29.98 "HgN/A
8:50 AM46 °FPartly sunny.41 mph93%29.98 "HgN/A
8:20 AM46 °FPartly sunny.40 mph93%30.01 "HgN/A
7:50 AM46 °FBroken clouds.41 mph93%30.01 "HgN/A
7:20 AM46 °FPartly sunny.43 mph87%30.01 "HgN/A
6:50 AM46 °FPassing clouds.41 mph87%30.01 "HgN/A
6:20 AM45 °FPassing clouds.43 mph93%30.01 "HgN/A
5:50 AM45 °FPassing clouds.44 mph93%30.04 "HgN/A
4:50 AM45 °FPassing clouds.43 mph93%30.07 "HgN/A
4:20 AM45 °FPassing clouds.40 mph93%30.07 "HgN/A
3:50 AM45 °FPassing clouds.40 mph93%30.09 "HgN/A
3:20 AM45 °FPassing clouds.40 mph93%30.09 "HgN/A
2:50 AM45 °FPartly cloudy.38 mph93%30.09 "HgN/A
12:50 AM45 °FPartly cloudy.38 mph93%30.15 "HgN/A
12:20 AM45 °FPartly cloudy.32 mph93%30.15 "HgN/A
11:50 PM
Apr 15
45 °FPassing clouds.35 mph93%30.15 "HgN/A
10:50 PM45 °FPassing clouds.36 mph93%30.18 "HgN/A
10:20 PM45 °FPassing clouds.35 mph87%30.18 "HgN/A
9:50 PM45 °FPassing clouds.35 mph87%30.18 "HgN/A
9:20 PM45 °FPartly sunny.31 mph87%30.21 "HgN/A
8:50 PM45 °FPartly sunny.33 mph87%30.21 "HgN/A
8:20 PM45 °FPartly sunny.33 mph87%30.21 "HgN/A
7:50 PM45 °FPartly sunny.31 mph87%30.21 "HgN/A
7:20 PM45 °FBroken clouds.31 mph81%30.24 "HgN/A
6:50 PM45 °FBroken clouds.32 mph81%30.24 "HgN/A
6:20 PM45 °FPartly sunny.30 mph81%30.24 "HgN/A
5:50 PM45 °FBroken clouds.31 mph81%30.24 "HgN/A
5:20 PM45 °FPartly sunny.31 mph81%30.27 "HgN/A
4:50 PM45 °FBroken clouds.32 mph81%30.27 "HgN/A
4:20 PM45 °FPartly sunny.32 mph81%30.27 "HgN/A
3:50 PM45 °FPartly sunny.30 mph81%30.27 "HgN/A
3:20 PM45 °FScattered clouds.31 mph76%30.27 "HgN/A
2:50 PM45 °FPartly sunny.30 mph76%30.30 "HgN/A
2:20 PM45 °FPartly sunny.29 mph76%30.30 "HgN/A
1:50 PM45 °FPartly sunny.29 mph76%30.30 "HgN/A
1:20 PM45 °FScattered clouds.26 mph76%30.30 "HgN/A
12:50 PM45 °FPassing clouds.26 mph71%30.30 "HgN/A
12:20 PM45 °FScattered clouds.25 mph71%30.30 "HgN/A
11:50 AM45 °FPassing clouds.23 mph71%30.30 "HgN/A
11:20 AM45 °FScattered clouds.23 mph71%30.30 "HgN/A
Weather by CustomWeather, © 2014

See weather overview